This is the latest recevied weather packets stored in our database for station/object DW9280. If no packets are shown the sender has not sent any weather packets the latest 1 day(s).
| Time | Temp. | Humidity | Pressure | Rain* | Wind** | Luminosity | Snow |
|---|---|---|---|---|---|---|---|
| 1777998790 | 13.33° C | 73% | 1010.3 hPa | 0 mm | 2.68 m/s, 343° | 188 W/m² | - |
| 1777998489 | 13.33° C | 73% | 1010.2 hPa | 0 mm | 3.13 m/s, 307° | 190 W/m² | - |
| 1777998188 | 13.33° C | 73% | 1010.3 hPa | 0 mm | 3.13 m/s, 355° | 181 W/m² | - |
| 1777997900 | 13.33° C | 73% | 1010.3 hPa | 0 mm | 2.68 m/s, 11° | 204 W/m² | - |
| 1777997590 | 13.33° C | 72% | 1010.2 hPa | 0 mm | 2.68 m/s, 9° | 223 W/m² | - |
| 1777997287 | 13.33° C | 73% | 1010.2 hPa | 0 mm | 2.68 m/s, 350° | 253 W/m² | - |
| 1777996989 | 13.33° C | 72% | 1010.2 hPa | 0 mm | 2.68 m/s, 24° | 225 W/m² | - |
| 1777996687 | 13.33° C | 72% | 1010.2 hPa | 0 mm | 3.13 m/s, 355° | 214 W/m² | - |
| 1777996388 | 13.33° C | 72% | 1010.3 hPa | 0 mm | 3.13 m/s, 334° | 236 W/m² | - |
| 1777996088 | 13.33° C | 71% | 1010.3 hPa | 0 mm | 3.13 m/s, 329° | 276 W/m² | - |
| 1777995787 | 13.33° C | 72% | 1010.3 hPa | 0 mm | 3.13 m/s, 335° | 269 W/m² | - |
| 1777995487 | 13.89° C | 71% | 1010.3 hPa | 0 mm | 3.13 m/s, 32° | 274 W/m² | - |
| 1777995189 | 13.89° C | 71% | 1010.3 hPa | 0 mm | 3.13 m/s, 53° | 276 W/m² | - |
| 1777994890 | 13.89° C | 71% | 1010.3 hPa | 0 mm | 3.13 m/s, 19° | 283 W/m² | - |
| 1777994587 | 14.44° C | 70% | 1010.3 hPa | 0 mm | 3.13 m/s, 319° | 290 W/m² | - |
| 1777994288 | 14.44° C | 70% | 1010.4 hPa | 0 mm | 3.58 m/s, 21° | 408 W/m² | - |
| 1777993986 | 13.89° C | 69% | 1010.4 hPa | 0 mm | 4.02 m/s, 331° | 455 W/m² | - |
| 1777993687 | 13.89° C | 70% | 1010.4 hPa | 0 mm | 3.58 m/s, 341° | 512 W/m² | - |
| 1777993513 | 13.89° C | 70% | 1010.3 hPa | 0 mm | 4.02 m/s, 20° | 482 W/m² | - |
| 1777993089 | 13.89° C | 70% | 1010.3 hPa | 0 mm | 4.47 m/s, 331° | 424 W/m² | - |
| 1777992912 | 13.89° C | 70% | 1010.2 hPa | 0 mm | 4.02 m/s, 33° | 388 W/m² | - |
| 1777992487 | 14.44° C | 70% | 1010.3 hPa | 0 mm | 4.02 m/s, 355° | 343 W/m² | - |
| 1777992187 | 14.44° C | 68% | 1010.3 hPa | 0 mm | 3.58 m/s, 315° | 399 W/m² | - |
| 1777991889 | 14.44° C | 68% | 1010.4 hPa | 0 mm | 3.13 m/s, 18° | 443 W/m² | - |
| 1777991587 | 14.44° C | 68% | 1010.4 hPa | 0 mm | 3.13 m/s, 0° | 499 W/m² | - |
* Rain latest hour (hover to see other rain measurements)
** Current wind speed in m/s (hover to see current wind gust speed)